EHI
0 0 0 0 0 0 0 0 0 0 0 0 0 0 0 0 1 0 0 0 0 0 0 0 0 1 0 1 1 1 1 0 0 0 0 1 1 0 0 0 0 0 0 0
0 0 0 0 0 0 0 0 0 0 0 0 0 0 0 0 1 1 0 0 0 0 0 0 0 1 1 1 1 2 1 0 0 0 1 2 2 2 1 1 1 0 0 0
0 0 0 0 0 0 0 0 0 0 0 0 0 0 0 0 1 1 1 0 0 0 0 0 0 1 1 2 2 1 1 0 0 1 3 4 5 4 3 2 2 1 0 0
0 0 0 0 0 0 0 0 0 0 0 0 0 0 0 0 1 1 1 0 0 0 0 0 0 0 1 2 1 0 0 0 1 3 6 7 6 6 5 4 4 3 1 1
0 0 0 0 0 0 0 0 0 0 0 0 0 0 0 1 1 0 0 0 0 0 0 1 1 1 1 1 0 0 0 1 2 4 6 7 7 7 7 6 6 5 3 2
0 0 0 0 0 0 0 0 0 0 0 0 0 0 0 0 0 0 0 0 0 0 1 2 2 2 2 2 1 1 1 2 3 4 4 5 6 7 7 7 6 6 5 4
0 0 0 0 0 0 0 0 0 0 0 0 0 0 0 0 0 0 0 0 1 1 2 3 3 4 5 4 3 3 3 3 3 2 2 3 4 5 5 5 6 6 6 6
0 0 0 0 0 0 0 0 0 0 0 0 0 0 0 0 0 0 0 0 1 2 2 2 4 6 7 6 6 5 5 3 1 1 1 2 3 3 3 4 6 7 7 6
0 0 0 0 0 0 0 0 0 0 0 0 0 0 0 0 0 0 0 0 1 1 1 3 5 7 7 7 7 7 4 2 0 0 0 1 3 3 3 4 6 7 6 5
0 0 0 0 0 0 0 0 0 0 0 0 0 0 0 0 0 0 0 0 0 0 1 4 5 5 7 9 9 6 3 1 0 0 0 1 2 3 4 5 6 6 6 6
0 0 0 0 0 0 0 0 0 0 0 0 0 0 0 0 0 0 0 0 0 0 1 3 4 4 6 9 8 5 2 1 1 1 0 1 2 3 5 6 6 6 6 6
0 0 0 0 0 0 0 0 0 0 0 0 0 0 0 0 0 0 0 0 0 0 1 3 3 3 5 6 6 3 2 2 3 2 2 3 4 4 4 6 6 6 6 6
0 0 0 0 0 0 0 0 0 0 0 0 0 0 0 0 0 0 0 0 0 1 2 3 3 4 4 4 5 4 4 4 4 4 3 4 4 4 5 6 6 5 4 4
0 0 0 0 0 0 0 0 0 0 0 0 0 0 0 0 0 0 0 0 0 1 2 3 4 4 4 4 4 5 6 7 6 5 5 4 4 5 6 7 6 5 4 4
0 0 0 0 0 0 0 0 0 0 0 0 0 0 0 0 0 0 0 0 0 0 1 3 3 3 3 3 3 5 7 8 7 6 6 5 5 6 8 8 8 7 6 6
0 0 0 0 0 0 0 0 0 0 0 0 0 0 0 0 0 0 0 0 0 0 1 2 2 1 1 1 2 4 5 7 7 6 6 6 7 8 8 9 9 9 8 8
0 0 0 0 0 0 0 0 0 0 0 0 0 0 0 0 0 0 0 0 0 0 0 1 1 0 0 0 1 3 4 6 6 6 6 6 7 8 8 7 8 9 9 9
0 0 0 0 0 0 0 0 0 0 0 0 0 0 0 0 0 0 0 0 0 0 1 1 1 1 1 1 1 3 4 6 6 6 6 6 7 7 7 6 7 7 8 8
0 0 0 0 0 0 0 0 0 0 0 0 0 0 0 0 0 0 0 1 1 1 2 2 2 2 2 2 3 3 4 5 6 6 6 6 6 6 6 6 6 6 6 6
0 0 0 0 0 0 0 0 0 0 0 0 0 0 0 0 0 1 1 2 2 2 2 2 2 3 3 3 2 2 3 4 4 4 5 5 5 5 5 4 4 4 4 4
0 0 0 0 0 0 0 0 0 0 0 0 0 0 0 0 0 1 2 2 1 1 1 1 1 1 2 1 1 1 1 2 2 3 3 3 3 3 3 3 2 3 4 3
0 0 0 0 0 0 0 0 0 0 0 0 0 0 0 0 0 1 1 1 0 0 0 0 0 0 0 0 0 0 0 0 1 1 1 1 1 1 1 1 1 2 2 2
0 0 0 0 0 0 0 0 0 0 0 0 0 0 0 0 0 0 0 0 0 0 0 0 0 0 0 0 0 0 0 0 0 0 0 0 0 0 0 0 0 1 1 0
0 0 0 0 0 0 0 0 0 0 0 0 0 0 0 0 0 0 0 0 0 0 0 0 0 0 0 0 0 0 0 0 0 0 0 0 0 0 0 0 0 0 0 0
0 0 0 0 0 0 0 0 0 0 0 0 0 0 0 0 0 0 0 0 0 0 0 0 0 0 0 0 0 0 0 0 0 0 0 0 0 0 0 0 0 0 0 0
0 0 0 0 0 0 0 0 0 0 0 0 0 0 0 0 0 0 0 0 0 0 0 0 0 0 0 0 0 0 0 0 0 0 0 0 0 0 0 0 0 0 0 0
Wind_Speed
7 6 6 5 6 7 6 6 5 3 4 6 6 7 6 8 7 6 6 6 8 9 9 8 8 7 6 5 6 6 6 5 4 2 2 2 2 1 2 2 3 3 3 3
6 7 6 5 5 7 8 8 6 3 4 4 6 7 5 7 9 8 7 6 6 6 7 8 8 7 6 5 5 6 6 5 4 3 2 2 2 2 2 1 2 2 2 3
7 3 4 5 6 8 9 7 6 5 5 6 7 7 6 6 6 7 6 6 7 8 8 9 8 7 6 6 5 5 6 6 5 3 2 2 2 2 1 1 1 1 2 2
7 5 5 7 7 8 7 4 6 8 7 5 6 5 4 5 6 7 6 6 6 6 7 8 8 7 7 6 5 5 5 5 5 4 3 4 3 2 2 2 1 1 2 2
5 4 6 7 6 6 6 6 7 9 8 9 8 7 3 5 5 7 7 7 6 7 7 8 8 8 6 6 5 4 5 5 4 4 4 4 2 2 2 2 2 2 1 1
7 5 5 5 5 5 6 8 9 8 6 8 9 6 3 3 4 5 7 7 7 6 7 8 7 7 6 5 5 5 5 4 4 4 4 4 4 3 3 2 2 1 1 1
9 8 7 5 6 6 6 6 4 4 5 5 4 4 1 2 3 3 4 5 6 6 7 8 8 7 6 6 5 5 5 5 4 4 4 4 4 4 4 3 3 2 1 1
7 6 6 5 5 4 5 7 4 4 4 4 5 4 3 4 4 4 3 3 4 4 5 7 8 7 7 7 6 5 5 5 5 5 4 4 4 3 2 3 3 2 2 2
6 2 2 3 4 5 5 6 6 6 9 7 3 2 3 4 4 3 3 4 4 4 4 5 6 7 7 7 6 6 5 5 5 5 4 3 3 3 3 3 3 2 2 2
7 7 4 3 4 6 6 5 4 5 5 5 3 2 1 2 4 3 3 4 4 4 4 5 5 5 6 6 6 6 5 5 4 4 4 3 3 3 3 3 3 3 2 2
7 7 5 5 6 6 5 6 5 5 5 5 4 1 1 3 3 3 3 3 4 4 4 4 4 5 5 6 6 6 5 4 4 4 4 3 3 3 3 3 3 2 2 2
5 5 8 7 4 4 4 5 5 4 5 5 4 1 3 4 4 3 3 3 3 4 4 3 3 4 4 5 6 6 5 5 4 4 4 4 4 4 4 3 3 2 2 2
7 5 6 4 3 4 5 5 6 5 5 6 5 2 1 3 3 3 2 2 3 3 4 4 3 3 2 3 4 5 5 5 4 4 4 4 4 4 3 4 3 2 2 1
4 7 8 8 6 5 6 5 5 5 5 6 6 4 2 2 3 2 2 2 2 2 2 2 2 2 2 2 3 4 4 5 5 5 5 4 4 4 4 3 4 3 2 2
4 8 9 9 9 9 10 8 7 7 7 8 7 5 4 3 2 2 2 2 3 3 3 3 2 1 1 2 2 3 4 4 5 5 5 4 4 4 4 4 4 3 3 3
5 7 9 9 9 8 9 10 9 8 7 7 7 5 4 4 3 2 2 3 3 4 3 2 2 1 0 1 2 3 3 4 5 5 5 4 4 4 3 4 3 3 2 2
5 7 8 8 7 8 7 6 7 5 4 5 5 4 4 4 3 3 2 3 3 3 2 2 2 1 1 2 2 3 3 4 4 4 4 4 5 4 4 4 3 3 3 2
7 7 5 7 7 8 2 3 3 3 3 4 4 4 3 4 2 3 4 4 3 2 2 2 2 2 2 1 2 2 3 4 4 5 4 4 4 4 4 4 3 3 3 3
6 6 5 5 7 5 3 4 4 4 3 5 4 5 6 5 2 4 6 6 4 3 3 2 2 1 2 2 1 1 2 3 3 3 3 4 4 4 3 3 3 2 2 2
5 6 6 6 7 6 2 4 5 3 1 5 5 5 4 4 2 3 6 5 4 4 4 3 2 2 2 2 1 1 1 2 2 3 3 3 3 3 3 3 2 2 2 2
3 4 6 6 7 4 4 5 4 3 2 5 5 5 4 4 3 4 4 5 4 4 4 3 3 2 2 2 1 0 1 1 1 2 2 3 3 3 3 3 2 2 2 2
4 3 4 4 6 4 4 3 3 3 4 4 5 5 4 4 4 4 4 4 4 4 4 3 3 2 2 2 1 1 1 0 2 3 3 2 3 2 3 3 2 2 2 2
3 3 2 2 1 1 3 4 4 4 3 3 3 4 4 3 3 3 4 3 3 4 4 3 3 3 3 2 1 1 1 0 2 3 3 2 2 2 3 3 3 2 2 2
4 3 4 4 2 2 3 4 4 4 4 4 4 3 3 3 3 3 3 3 3 3 3 3 3 3 3 2 2 1 1 0 1 2 2 2 2 2 2 2 2 2 2 2
6 5 6 6 3 3 3 4 5 5 5 5 5 4 3 3 4 4 3 3 3 3 3 3 3 3 3 2 2 1 1 0 1 2 2 2 2 2 2 1 1 1 1 2
6 6 6 5 4 4 5 5 6 6 6 6 6 5 4 4 4 4 4 3 3 3 3 3 3 3 2 1 1 1 1 1 1 1 2 2 2 2 2 2 1 1 2 2
Wind_Direction
208 227 237 239 239 262 278 278 276 259 196 216 240 247 212 187 190 201 203 199 187 181 167 159 155 151 150 147 145 140 140 138 127 124 120 122 118 98 76 67 59 46 41 56
220 229 239 255 261 267 271 273 272 269 239 240 247 249 234 197 197 200 203 195 187 173 159 154 157 156 158 155 156 152 150 143 136 135 132 132 127 120 103 86 71 58 48 43
234 238 239 244 250 255 259 271 282 283 278 259 265 250 234 210 200 188 201 203 190 182 171 164 163 159 160 160 167 158 149 141 138 138 123 115 97 95 99 95 74 61 62 56
238 232 244 249 254 260 264 276 281 281 276 264 252 262 219 201 187 190 197 205 193 179 173 165 160 161 165 161 162 158 151 151 152 147 140 143 149 156 155 143 133 114 84 76
249 229 251 254 262 271 281 291 275 272 273 272 253 259 224 182 188 193 194 195 191 176 173 167 161 158 159 158 158 159 153 151 148 151 150 158 154 148 136 130 135 132 117 114
248 239 255 266 267 260 277 274 261 255 260 262 246 240 231 192 178 176 182 184 185 181 172 161 151 148 155 152 157 160 151 149 149 152 158 166 156 154 142 143 146 151 151 145
229 217 219 233 254 239 248 270 259 233 223 240 224 228 198 119 122 137 158 166 173 172 162 156 151 155 159 159 159 165 158 158 158 163 171 176 171 169 168 165 164 161 156 152
253 222 201 206 237 271 254 254 261 276 269 269 230 215 120 108 108 108 122 140 144 145 152 155 157 161 163 163 163 167 170 170 171 175 183 180 170 165 168 163 146 154 166 161
293 257 174 195 232 251 260 257 275 285 284 278 251 150 118 93 96 107 140 140 142 142 142 151 153 161 166 165 167 175 175 180 181 180 177 177 170 153 149 154 142 153 160 161
294 293 233 207 212 223 254 285 279 265 280 278 261 255 202 152 144 144 128 127 136 142 149 155 157 161 164 161 165 170 176 181 181 175 170 166 160 150 152 146 146 156 159 145
286 280 264 225 227 234 229 248 260 272 267 278 284 333 66 118 92 93 105 116 128 135 142 152 155 160 161 160 165 172 172 173 174 175 169 165 159 154 148 147 149 154 152 158
305 281 270 256 246 253 247 258 263 269 282 285 285 285 63 89 82 64 72 94 115 125 130 137 148 162 163 167 169 170 173 176 177 173 169 171 164 160 158 157 150 154 173 177
334 290 278 248 206 214 240 247 262 276 280 276 274 251 95 74 78 72 66 84 104 119 135 143 143 151 159 166 168 168 175 176 171 165 168 172 166 167 173 164 161 171 182 185
302 275 276 278 293 301 278 267 257 255 257 268 272 278 310 25 34 41 57 79 94 108 119 124 133 149 164 169 174 170 175 171 167 165 172 181 177 172 176 169 167 171 178 193
277 275 277 280 285 292 290 283 264 257 259 262 275 288 306 337 348 14 31 66 84 87 88 87 92 115 162 176 182 178 176 173 171 172 179 187 178 172 171 169 166 172 179 179
275 283 288 280 277 275 277 282 276 274 276 265 268 278 315 334 338 4 37 61 74 72 71 76 89 93 158 200 201 195 186 177 173 176 182 177 176 174 170 167 165 172 168 165
281 282 285 281 281 281 268 280 272 271 287 290 283 299 327 333 355 19 50 76 79 67 55 54 47 43 242 226 220 219 196 175 172 178 180 179 177 177 179 172 164 168 175 167
272 278 277 279 278 263 291 347 325 319 345 351 344 350 356 2 34 63 54 57 50 63 62 45 11 349 325 289 233 223 193 177 177 181 181 176 170 172 171 168 174 175 168 166
237 254 265 270 273 265 283 325 330 323 339 14 3 7 16 8 22 67 43 42 34 28 40 28 4 345 335 330 271 222 209 177 173 178 175 169 159 160 161 169 176 167 162 163
231 232 245 261 270 272 332 350 339 307 323 25 14 11 16 7 3 16 18 22 26 15 20 10 355 351 353 340 325 248 215 173 184 177 160 150 153 163 169 168 162 151 152 164
250 245 239 252 262 273 335 340 329 289 20 24 21 20 15 11 6 360 7 6 12 7 9 4 356 351 342 341 339 305 288 211 166 127 129 139 155 163 158 152 148 149 155 158
264 266 262 263 262 272 5 356 7 17 37 28 15 11 2 3 19 13 9 7 6 353 350 351 341 338 337 330 289 229 265 242 119 121 126 137 152 158 142 144 149 154 156 162
267 277 285 264 256 13 29 36 27 25 28 15 2 352 2 355 359 359 355 353 350 342 338 338 334 333 341 349 359 304 286 77 129 134 139 148 151 147 148 153 160 162 165 173
291 307 291 283 270 314 349 19 13 8 358 350 343 341 336 325 331 337 334 333 328 326 322 324 322 319 325 337 352 329 311 206 155 160 155 155 158 153 151 155 160 168 178 182
299 302 291 284 278 298 325 348 346 341 338 334 328 319 311 306 306 310 305 304 306 303 309 307 300 294 301 328 351 343 348 297 200 182 169 169 152 144 137 133 149 172 172 164
279 285 280 286 309 304 309 326 330 325 324 321 315 307 301 294 293 297 294 294 293 290 289 286 289 294 294 299 313 349 326 283 224 199 181 165 155 156 153 145 106 78 153 134